ソーホー彗星

322P/SOHO (2007)

English version
Home page
Updated on June 14, 2015

---------------------------------------------------------------------

・ プロフィール

符号 322P/2007 R5

・ 軌道要素

Epoch 2007 Sept. 17.0 TT = JDT 2454360.5
T 2007 Sept. 11.31879 TT                                MPCW
q   0.0537280            (2000.0)            P               Q
n   0.24695335     Peri.   48.71956     +0.66165422     -0.74980889
a   2.5160896      Node   359.85065     +0.60564225     +0.53488597
e   0.9786462      Incl.   12.65727     +0.44205335     +0.38946583
P   3.99
From 244 observations 1999 Sept. 4-2015 May 22.

・ 光度変化

        m1 = 19.0 + 5 logΔ + 10.5 log r(t - 0.17)

---------------------------------------------------------------------

軌道要素はM.P.E.C. 2015-K84に掲載されたものです。
光度グラフはComet for Windowsで作成したものです。

---------------------------------------------------------------------

Copyright(C) Seiichi Yoshida (comet@aerith.net). All rights reserved.